Location: Falkner
(32.6954°N, 86.0502°W)
Time: 14:26:21
(UTC+00:00)

COSMO-SKYMED 1 - Pass Details

Date: 29 October 2020
Orbit: 621 x 623 km, 97.9° (Epoch: 03 December)

Event Time Altitude Azimuth Distance (km) Brightness Sun altitude
Rises 23:33:57 0° 15° (NNE) 2,905 5.7 -8.7°
Reaches altitude 10° 23:36:10 10° 18° (NNE) 1,995 4.9 -9.1°
Maximum altitude 23:40:29 68° 101° (E) 670 2.5 -10.0°
Drops below altitude 10° 23:44:47 10° 185° (S) 1,981 5.3 -10.9°
Sets 23:46:58 0° 187° (S) 2,883 6.2 -11.4°
